Location: Gull Stream
(51.3000°N, 1.5000°E)
Time: 18:43:33
(UTC+00:00)

Daily predictions for brighter satellites

Satellite Brightness Start Highest point End
(mag) Time Altitude Azimuth Time Altitude Azimuth Time Altitude Azimuth
STARLINK-30 3.6 17:54:51 10° W 17:58:53 78° NNW 18:02:56 10° ENE
STARLINK-1030 3.9 17:55:00 10° SW 17:59:04 58° SSE 18:03:09 10° ENE
Cosmos 2297 Rocket 3.6 17:55:31 10° NNW 17:59:51 22° NE 18:04:11 10° E
Cosmos 1943 Rocket 2.3 17:54:52 10° SSW 18:00:28 86° WNW 18:06:02 10° NNE
STARLINK-72 3.6 17:56:31 10° W 18:00:33 77° NNW 18:04:36 10° ENE
Cosmos 1725 Rocket 4.2 17:54:54 10° S 18:01:06 84° W 18:07:23 10° N
SKYMED 2 3.6 17:57:00 10° NNE 18:01:20 61° ESE 18:05:37 10° S
CSL-04 Debris 4.3 17:56:12 10° SSE 18:01:34 61° ENE 18:07:00 10° N
Cosmos 1666 Rocket 3.8 17:57:14 10° SSW 18:01:43 81° W 18:06:13 10° N
STARLINK-50 3.6 17:58:10 10° W 18:02:13 76° N 18:06:15 10° ENE
Cosmos 1933 Rocket 4.1 17:58:17 10° SSE 18:02:20 37° E 18:06:23 10° NNE
NOSS 2 (A) 4.4 18:00:54 10° NW 18:03:30 48° NE 18:05:50 10° ESE
STARLINK-59 3.7 17:59:56 10° W 18:03:58 75° N 18:08:00 10° ENE
STARLINK-1020 3.8 17:59:56 10° SW 18:04:01 61° SSE 18:08:07 10° ENE
STARLINK-56 3.7 18:01:30 10° W 18:05:31 75° NNW 18:09:34 10° ENE
Cosmos 1862 4.2 18:03:07 10° SSW 18:07:01 54° WNW 18:10:56 10° N
STARLINK-73 3.7 18:03:09 10° W 18:07:11 75° N 18:11:13 10° ENE
STARLINK-1010 3.1 18:04:48 10° W 18:08:05 72° N 18:11:21 10° ENE
STARLINK-38 3.7 18:04:50 10° W 18:08:52 74° N 18:12:54 10° ENE
STARLINK-1052 3.8 18:04:53 10° SW 18:08:59 64° SSE 18:13:05 10° ENE
Cosmos 1340 2.7 18:05:19 10° S 18:09:00 58° E 18:12:43 10° NNE
Cosmos 2278 Rocket 4.4 18:05:52 10° WNW 18:09:54 19° NNW 18:13:57 10° NNE
Cosmos 1346 Rocket 3.0 18:06:14 10° S 18:10:03 48° E 18:13:51 10° NNE
NOAA 11 4.2 18:04:39 10° SSE 18:10:04 76° ENE 18:15:31 10° NNW
STARLINK-65 3.7 18:06:28 10° W 18:10:30 74° N 18:14:32 10° ENE
Cosmos 1937 Rocket 3.9 18:05:52 10° NNW 18:10:53 41° NE 18:15:48 10° SE
STARLINK-1047 3.7 18:07:09 10° WSW 18:11:18 67° SSE 18:15:27 10° ENE
STARLINK-53 3.7 18:08:14 10° W 18:12:15 72° N 18:16:17 10° ENE
Genesis I 4.1 18:10:01 10° NNW 18:13:34 32° NE 18:17:05 10° E
USA 238 DEB 4.3 18:08:01 10° NW 18:14:46 45° NNE 18:21:46 10° E
USA 238 4.3 18:08:07 10° NW 18:14:52 45° NNE 18:21:51 10° E
ADEOS Rocket 3.8 18:07:24 10° NNE 18:14:55 48° E 18:22:13 10° S
STARLINK-1033 3.7 18:14:48 10° WSW 18:18:55 71° SSE 18:22:50 11° ENE
Cosmos 2227 Rocket 3.4 18:14:36 10° NNW 18:19:12 24° NE 18:23:26 11° E
Meteor 1-20 Rocket 4.4 18:16:30 10° SSE 18:21:43 46° E 18:27:03 10° NNE
Orbus 7S? 4.1 18:14:26 10° WSW 18:22:21 76° NNW 18:25:51 10° ENE
NOSS 3-1 (C) 3.8 18:17:15 10° WSW 18:22:55 65° NW 18:29:39 10° NE
Cosmos 1656 Rocket 3.7 18:19:32 10° SSW 18:24:59 62° ESE 18:30:33 10° NE
STARLINK-1024 3.6 18:24:45 10° WSW 18:28:53 78° SSE 18:32:25 14° ENE
STARLINK 1040 2.9 18:27:56 10° W 18:30:42 58° N 18:32:39 17° ENE
H-2A R/B 2.7 18:27:14 10° SE 18:32:13 38° ENE 18:37:14 10° N
STARLINK-22 3.2 18:30:38 10° W 18:33:56 62° N 18:36:16 18° E
STARLINK-41 3.2 18:32:08 10° W 18:35:25 62° N 18:37:41 18° E
STARLINK-1039 4.4 18:31:58 10° SSW 18:35:43 35° SE 18:38:21 17° E
Cosmos 2034 Rocket 4.4 18:30:14 10° SSE 18:35:48 38° E 18:41:25 10° NNE
STARLINK-1016 3.3 18:32:55 10° W 18:36:20 65° N 18:38:43 18° ENE
Meteor 1-18 Rocket 4.3 18:31:25 10° N 18:37:20 68° ENE 18:43:07 10° SSE
STARLINK-1008 3.3 18:34:36 10° W 18:38:00 65° N 18:40:20 19° ENE
COSMOS 2487 3.2 18:34:56 10° NNW 18:38:20 55° WSW 18:41:43 10° S
STARLINK-1032 3.6 18:34:41 10° WSW 18:38:51 84° SSE 18:41:59 17° ENE
STARLINK-75 3.2 18:36:29 10° WNW 18:39:50 64° N 18:41:58 20° E
STARLINK-1045 4.3 18:36:50 10° SSW 18:40:40 37° SE 18:43:08 19° E
STARLINK-58 3.4 18:37:26 10° W 18:40:58 64° N 18:43:17 20° E
STARLINK-24 3.7 18:37:01 10° W 18:41:02 68° N 18:43:51 19° ENE
STARLINK-1025 3.3 18:38:46 10° W 18:42:10 64° N 18:44:21 20° ENE
Cosmos 1470 Rocket 4.0 18:37:59 10° SSW 18:42:21 68° WNW 18:46:47 10° N
STARLINK-62 3.4 18:39:08 10° W 18:42:41 64° N 18:44:55 21° E
STARLINK-43 4.1 18:39:38 10° WNW 18:43:13 49° SSW 18:46:22 13° SE
STARLINK-1011 3.6 18:39:39 10° WSW 18:43:48 87° SSE 18:46:45 19° ENE
STARLINK-1017 3.3 18:40:51 10° W 18:44:15 64° N 18:46:21 21° ENE
STARLINK-34 3.4 18:40:45 10° W 18:44:18 64° N 18:46:29 21° E
Timation 2 Rocket 4.2 18:37:33 10° NNW 18:44:30 87° ENE 18:51:23 10° SSE
Lacrosse 5 rocket 2.0 18:40:44 10° WNW 18:45:10 51° NNE 18:48:11 20° E
STARLINK-1035 3.7 18:41:16 10° WSW 18:45:32 89° NNW 18:48:33 19° ENE
Okean 1 3.2 18:41:34 10° N 18:45:35 69° ENE 18:49:32 10° SSE
STARLINK-1050 4.2 18:41:46 10° SW 18:45:39 40° SSE 18:47:58 21° E
OPS 8737 4.4 18:41:54 10° SSW 18:45:45 64° SE 18:48:02 17° NE
STARLINK-1031 3.6 18:41:39 10° WSW 18:45:47 87° NNW 18:48:37 20° ENE
Okean 1-7 2.9 18:42:17 10° N 18:46:39 79° E 18:51:00 10° SSE
HJ-1C 3.2 18:43:45 10° SSE 18:47:02 75° ENE 18:50:21 10° N
Cosmos 2219 3.6 18:42:26 10° NNW 18:47:58 45° NE 18:52:14 16° ESE
Cosmos 468 Rocket 4.1 18:42:57 10° S 18:48:04 53° ESE 18:53:16 10° NNE
STARLINK-1036 3.6 18:44:38 10° WSW 18:48:47 90° NNW 18:51:32 21° ENE
COSMO-SKYMED 1 3.7 18:45:11 10° N 18:49:23 48° WNW 18:53:33 10° SW
STARLINK-1055 4.1 18:46:41 10° SW 18:50:36 43° SSE 18:52:45 23° E
STARLINK-1048 3.3 18:47:13 10° W 18:50:38 63° N 18:52:29 24° ENE
Cosmos 405 3.1 18:47:55 10° NNW 18:51:29 78° W 18:55:01 10° S
Cosmos 1092 Rocket 4.4 18:45:39 10° N 18:51:39 41° ENE 18:57:36 10° SE
STARLINK-81 3.7 18:47:44 10° W 18:51:46 67° N 18:54:10 23° ENE
Cosmos 192 4.4 18:47:45 10° S 18:52:32 56° ESE 18:57:21 10° NNE
STARLINK-1049 3.3 18:49:21 10° W 18:52:46 63° N 18:54:32 26° ENE
Lacrosse 5 2.6 18:48:30 10° SSW 18:53:04 34° SE 18:55:38 21° E
STARLINK-54 3.7 18:49:36 10° W 18:53:37 67° N 18:55:56 24° ENE
STARLINK-1044 3.6 18:49:37 10° WSW 18:53:46 87° NNW 18:56:20 23° ENE
MOS 1 4.3 18:49:18 10° SE 18:54:50 59° ENE 19:00:23 10° N
STARLINK-1051 3.3 18:51:32 10° W 18:54:57 63° N 18:56:37 27° ENE
STARLINK-77 3.7 18:51:04 10° W 18:55:05 67° N 18:57:20 25° ENE
STARLINK-1022 4.0 18:51:36 10° SW 18:55:33 45° SSE 18:57:31 25° E
Meteor 2-4 Rocket 4.0 18:49:57 10° N 18:55:45 52° ENE 19:01:32 10° SSE
STARLINK-1027 3.7 18:51:56 10° WSW 18:56:13 82° NNW 18:58:47 23° ENE
STARLINK-1028 3.3 18:53:11 10° W 18:56:37 63° N 18:58:14 28° ENE
STARLINK-25 3.7 18:52:42 10° W 18:56:44 67° N 18:58:55 25° ENE
Cosmos 2263 Rocket 4.2 18:54:20 10° N 18:57:04 13° NNE 18:59:45 10° NE
NOSS 2-3 (E) 4.3 18:53:27 10° WSW 18:57:55 63° NW 19:03:25 10° NE
STARLINK-71 3.7 18:54:35 10° W 18:58:36 67° N 19:00:42 27° ENE
Meteor 1-14 Rocket 4.2 18:53:22 10° S 18:58:47 60° E 19:04:19 10° NNE
STARLINK-1021 3.3 18:55:24 10° W 18:58:49 63° N 19:00:21 29° ENE
Gbstr 26 Del rocket 3.3 18:55:44 10° SW 18:59:42 50° SSE 19:02:07 25° E
STARLINK-79 3.7 18:56:03 10° W 19:00:03 67° N 19:02:07 27° ENE
USA 234 3.7 18:55:21 16° ENE 19:00:29 55° N 19:06:49 10° WNW
STARLINK-1042 3.9 18:56:33 10° SW 19:00:32 48° SSE 19:02:19 28° E
STARLINK-1019 3.3 18:57:36 10° W 19:01:01 63° N 19:02:28 31° ENE
GP-B 4.5 19:01:33 21° ENE 19:01:33 21° ENE 19:04:21 10° NNE
STARLINK-78 3.7 18:57:43 10° W 19:01:44 67° N 19:03:43 28° ENE
Cosmos 2369 Rocket 3.3 18:56:47 10° WSW 19:02:13 44° NW 19:07:42 10° NNE
STARLINK-1012 3.3 18:59:49 10° W 19:03:15 63° N 19:04:37 33° ENE
Cosmos 44 Rocket 3.8 18:58:44 10° NW 19:03:23 57° SW 19:08:05 10° SSE
STARLINK-57 3.7 18:59:28 10° W 19:03:30 67° N 19:05:24 29° ENE
STARLINK-1037 3.6 18:59:30 10° WSW 19:03:39 82° NNW 19:05:48 27° ENE
Cosmos 1703 Rocket 4.1 18:59:30 10° NNW 19:03:56 63° W 19:08:21 10° S
Cosmos 1898 Rocket 3.9 18:58:48 10° NNW 19:03:56 64° WSW 19:09:03 10° S
STARLINK-49 3.7 19:01:01 10° W 19:05:02 67° N 19:06:53 30° ENE
SJ 16-02 1.8 19:00:47 10° NNW 19:05:10 61° WSW 19:09:29 10° S
NOSS 3-2 (A) 4.0 18:58:02 10° NW 19:05:11 65° NE 19:10:56 21° ESE
Cosmos 1602 3.6 19:01:31 10° S 19:05:23 73° E 19:09:15 10° NNE
STARLINK-1056 3.9 19:01:28 10° SW 19:05:29 51° SSE 19:07:07 31° E
STARLINK-48 3.4 19:02:00 10° WNW 19:05:55 82° SSW 19:07:38 32° ESE
USA 186 1.5 19:05:54 49° E 19:06:01 49° ENE 19:08:51 10° N
STARLINK-27 3.7 19:02:39 10° W 19:06:41 67° N 19:08:28 31° ENE
STARLINK-1026 3.3 19:04:16 10° W 19:07:42 63° N 19:08:53 36° ENE
STARLINK-1023 3.2 19:04:35 10° W 19:07:52 62° N 19:08:53 38° ENE
Cosmos 841 Rocket 3.9 19:03:23 10° S 19:08:05 37° ESE 19:12:50 10° NE
Meteor 1-19 Rocket 4.2 19:02:17 10° NNW 19:08:08 90° WSW 19:13:46 10° S
STARLINK-74 3.7 19:04:20 10° W 19:08:21 68° N 19:10:04 32° ENE
Cosmos 1763 Rocket 3.5 19:03:14 10° S 19:08:24 63° ESE 19:13:39 10° NNE
STARLINK-1059 3.6 19:04:33 10° W 19:08:43 80° NNW 19:10:41 30° ENE
NOSS 3-2 (C) 4.2 19:01:57 10° NW 19:08:56 54° NNE 19:13:51 24° E
Cosmos 2298 Rocket 4.2 19:03:44 10° NNW 19:08:58 52° ENE 19:12:02 24° SE
STARLINK-1013 3.3 19:06:31 10° W 19:09:57 63° N 19:11:03 38° ENE
STARLINK-39 3.6 19:05:59 10° W 19:10:00 68° N 19:11:38 33° ENE
STARLINK-1054 3.8 19:06:23 10° SW 19:10:25 54° SSE 19:11:52 35° E
ARGOS 3.1 19:05:49 10° SSE 19:11:10 64° ENE 19:16:33 10° N
STARLINK-26 3.1 19:07:42 10° WNW 19:11:10 79° SSW 19:12:15 41° ESE
Resurs 01 Rocket 2.7 19:11:23 25° ENE 19:11:30 25° ENE 19:15:08 10° N
STARLINK-31 3.6 19:07:40 10° W 19:11:42 68° N 19:13:16 35° ENE
STARLINK-61 3.4 19:08:03 10° WNW 19:11:59 75° N 19:13:23 38° E
STARLINK-1009 3.3 19:08:45 10° W 19:12:12 63° N 19:13:12 41° ENE
NOSS 2-3 (D) 4.5 19:08:41 10° WSW 19:13:08 55° NW 19:18:36 10° NE
STARLINK-69 3.6 19:09:32 10° W 19:13:33 69° N 19:15:02 36° ENE
STARLINK-1057 3.6 19:09:33 10° W 19:13:42 78° NNW 19:15:28 33° ENE
Meteor 1-25 Rocket 4.4 19:08:16 10° SSW 19:13:55 74° WNW 19:19:32 10° N
STARLINK-1015 3.3 19:11:01 10° W 19:14:28 64° N 19:15:23 43° ENE
STARLINK-21 3.6 19:11:01 10° W 19:15:02 68° N 19:16:28 37° ENE
Cosmos 1869 Rocket 3.4 19:10:42 10° S 19:15:04 78° E 19:19:27 10° NNE
Cosmos 2208 Rocket 4.2 19:10:01 10° S 19:15:09 47° ESE 19:20:16 10° NE
STARLINK-1062 3.7 19:11:20 10° SW 19:15:24 57° SSE 19:16:39 39° E
ARGOS Delta rocket 3.7 19:13:10 22° SE 19:15:50 53° ENE 19:20:16 10° N
Meteor 1-11 Rocket 4.3 19:11:23 10° SSE 19:16:12 31° E 19:20:59 10° NNE
SPOT 3 Rocket 3.7 19:13:10 20° SE 19:16:33 52° ENE 19:21:37 10° N
STARLINK-45 3.6 19:12:53 10° W 19:16:55 69° N 19:18:15 39° ENE
CENTAUR R/B 3.4 19:10:25 10° NW 19:17:52 53° NNE 19:22:39 26° E
STARLINK-70 3.6 19:14:26 10° W 19:18:28 69° N 19:19:45 41° ENE
STARLINK-1034 3.6 19:14:32 10° W 19:18:41 76° N 19:20:14 37° ENE
STARLINK-1014 3.3 19:16:10 10° W 19:19:41 64° N 19:20:28 47° ENE
STARLINK-76 3.6 19:15:58 10° W 19:20:00 69° N 19:21:13 42° ENE
STARLINK-1053 3.7 19:16:17 10° SW 19:20:22 60° SSE 19:21:26 43° E
Cosmos 389 Rocket 3.6 19:17:13 10° N 19:19:48 30° NE 19:19:48 30° NE
STARLINK-23 3.6 19:17:38 10° W 19:21:39 69° N 19:22:49 43° ENE
STARLINK-80 3.9 19:18:12 10° WNW 19:21:56 53° SSW 19:23:11 35° SSE
CZ-4 R/B 4.4 19:20:09 10° SW 19:23:05 19° W 19:26:02 10° NW
NOSS 3-1 (A) 4.3 19:17:33 10° WSW 19:23:14 50° NNW 19:29:56 10° NE
STARLINK-32 3.6 19:19:16 10° WNW 19:23:17 70° N 19:24:23 45° ENE
STARLINK-1068 3.6 19:19:32 10° W 19:23:40 75° N 19:25:01 41° ENE
STARLINK-40 3.6 19:20:56 10° WNW 19:24:58 70° N 19:25:59 47° ENE
STARLINK-1061 3.6 19:21:13 10° SW 19:25:19 63° SSE 19:26:12 48° E
Cosmos 2150 Rocket 4.1 19:20:22 10° NNW 19:25:46 63° ENE 19:28:23 31° SE
CZ-2C R/B 3.2 19:20:28 10° SSE 19:26:16 81° ENE 19:31:53 10° NNW
STARLINK-44 3.6 19:22:35 10° WNW 19:26:37 70° N 19:27:35 49° ENE
Lacrosse 4 Rocket 4.2 19:26:30 10° NW 19:28:13 12° NNW 19:29:58 10° N
STARLINK-37 3.6 19:24:22 10° WNW 19:28:24 72° N 19:29:16 51° ENE
STARLINK-64 3.1 19:24:48 10° WNW 19:28:25 77° NNE 19:28:51 64° ENE
STARLINK-33 2.8 19:25:17 10° WNW 19:28:34 86° N 19:28:41 82° ENE
FREGAT/IRIS 2.8 19:29:02 54° SW 19:29:19 58° WSW 19:32:02 10° NNW
Cosmos 1570 Rocket 3.9 19:24:13 10° SSW 19:29:25 69° ESE 19:34:42 10° NNE
STARLINK-36 3.6 19:25:53 10° WNW 19:29:55 71° N 19:30:44 53° ENE
STARLINK-55 2.8 19:26:38 10° WNW 19:29:55 89° NNE 19:29:59 86° E
STARLINK-1067 3.6 19:26:11 10° WSW 19:30:18 67° SSE 19:31:00 55° ESE
STARLINK-66 2.8 19:27:33 10° WNW 19:30:51 88° NNE 19:30:52 87° ENE
SJ-6B 2.6 19:29:19 34° SSE 19:30:52 85° ENE 19:34:43 10° NNW
Cosmos 1125 Rocket 3.9 19:25:47 10° NNW 19:30:54 44° ENE 19:32:01 39° E
Okean 3 3.3 19:27:01 10° N 19:31:16 82° E 19:33:29 27° SSE
STARLINK-28 2.8 19:28:13 10° WNW 19:31:31 88° SSW 19:31:31 88° SSW
STARLINK-68 3.5 19:27:45 10° WNW 19:31:48 73° N 19:32:31 56° ENE
STARLINK-42 2.9 19:28:59 10° WNW 19:32:09 83° NNW 19:32:09 83° NNW
ATLAS 3B R/B 3.3 19:26:32 10° NW 19:32:51 42° NNE 19:35:31 30° ENE
STARLINK-63 3.5 19:29:19 10° WNW 19:33:20 73° N 19:34:01 57° ENE
STARLINK-1060 3.7 19:29:30 10° W 19:33:39 72° N 19:34:34 51° ENE
Ariane Rocket 3.7 19:28:54 10° S 19:33:54 55° W 19:38:57 10° NNW
STARLINK-1029 3.2 19:31:04 10° WNW 19:34:05 61° NNW 19:34:05 61° NNW
Cosmos 540 Rocket 3.5 19:29:35 10° S 19:34:33 53° ESE 19:39:35 10° NNE
STARLINK-35 3.5 19:30:52 10° WNW 19:34:54 72° N 19:35:31 59° ENE
STARLINK-1058 3.5 19:31:08 10° WSW 19:35:15 70° SSE 19:35:46 61° ESE
STARLINK-1007 3.1 19:32:18 10° WNW 19:35:37 67° N 19:35:37 67° N
STARLINK-51 3.5 19:32:31 10° WNW 19:36:34 73° N 19:37:06 61° ENE
Cosmos 1627 Rocket 4.4 19:31:10 10° N 19:37:21 64° ENE 19:41:01 25° SSE
STARLINK-30 3.5 19:34:11 10° WNW 19:38:13 73° N 19:38:42 64° ENE
STARLINK-1030 3.7 19:34:31 10° W 19:38:40 71° N 19:39:23 56° NE
STARLINK-72 3.4 19:35:51 10° WNW 19:39:54 74° N 19:40:18 66° ENE
STARLINK-1043 3.4 19:36:06 10° WSW 19:40:14 73° SSE 19:40:33 69° ESE
Meteor 1-13 Rocket 4.2 19:34:54 10° N 19:40:49 79° ENE 19:44:37 22° SSE
STARLINK-50 3.4 19:37:30 10° WNW 19:41:33 74° N 19:41:53 68° NE
STARLINK-59 3.4 19:39:16 10° WNW 19:43:19 76° NNE 19:43:34 72° NE
STARLINK-1020 3.6 19:39:30 10° W 19:43:38 70° N 19:44:09 61° NE
SL-08 RB Rocket 3.5 19:42:33 37° SSE 19:44:17 87° E 19:48:48 10° NNW
STARLINK-1010 3.5 19:41:21 10° WNW 19:44:08 57° NW 19:44:08 57° NW
Cosmos 2297 Rocket 2.1 19:39:10 10° NNW 19:44:52 77° ENE 19:46:51 42° SE
STARLINK-56 3.4 19:40:50 10° WNW 19:44:52 75° NNE 19:45:04 73° NE
Cosmos 1943 Rocket 4.3 19:40:41 10° W 19:45:01 23° NW 19:49:22 10° NNE
STARLINK-1065 3.4 19:40:53 10° WSW 19:45:01 76° SSE 19:45:09 75° SE
APEX 4.1 19:40:13 10° SSW 19:45:22 68° ESE 19:51:46 10° NE
CZ-2C R/B 3.7 19:41:53 10° NNE 19:46:31 62° ESE 19:51:12 10° S
STARLINK-73 3.4 19:42:28 10° WNW 19:46:31 76° N 19:46:39 75° NE
STARLINK-38 3.4 19:44:10 10° WNW 19:48:12 77° NNE 19:48:16 76° NNE
STARLINK-1052 3.6 19:44:29 10° W 19:48:37 69° N 19:48:55 66° NNE
STARLINK-65 3.5 19:45:48 10° WNW 19:49:50 77° N 19:49:50 77° N
STARLINK-1063 3.5 19:46:00 10° WSW 19:50:05 79° S 19:50:05 79° S
Spot 2 Rocket 4.3 19:51:22 33° NE 19:51:22 33° NE 19:55:16 10° N
STARLINK-1047 3.7 19:46:54 10° W 19:51:04 69° N 19:51:18 67° NNE
Genesis I 4.1 19:47:35 10° NW 19:51:16 42° SW 19:52:02 37° SSW
STARLINK-53 3.5 19:47:32 10° WNW 19:51:31 78° N 19:51:31 78° N
STARLINK-1064 3.6 19:50:59 10° WSW 19:54:52 76° SW 19:54:52 76° SW
Cosmos 2026 Rocket 3.8 19:49:07 10° N 19:55:20 79° E 19:58:22 32° SSE
Terra 4.1 19:57:30 11° NNE 19:57:30 11° NNE 19:57:58 10° NNE
ATLAS 2AS CENTAUR R/B 4.5 19:51:40 10° S 19:53:45 18° SSE 19:53:45 18° SSE
STARLINK-1033 3.7 19:54:27 10° W 19:58:29 68° NNW 19:58:29 68° NNW
Meteor 1-5 Rocket 4.1 19:54:25 10° S 19:59:56 82° E 20:05:42 10° NNE
STARLINK-1041 3.7 19:55:58 10° WSW 19:59:39 70° WSW 19:59:39 70° WSW
ADEOS Rocket 4.4 19:52:59 10° N 20:00:24 50° WNW 20:07:41 10° SW
Cosmos 2227 Rocket 2.1 19:58:19 10° NNW 20:04:00 89° WSW 20:05:17 56° SSE
MetOp-B 4.4 20:05:14 48° NE 20:05:14 48° NE 20:09:56 10° N
STARLINK-1038 3.9 20:00:55 10° WSW 20:04:25 63° WSW 20:04:25 63° WSW
Cosmos 1674 Rocket 3.6 20:01:04 10° N 20:05:11 74° N 20:05:11 74° N
USA 238 DEB 3.9 19:59:07 10° NW 20:06:15 73° SW 20:09:21 38° SSE
USA 238 3.9 19:59:12 10° NW 20:06:21 74° SW 20:09:24 38° SSE
Meteor 1-23 Rocket 4.1 20:00:50 10° N 20:06:31 72° ENE 20:07:08 65° ESE
STARLINK-1024 4.0 20:04:28 10° W 20:08:04 60° NW 20:08:04 60° NW
STARLINK-1046 4.1 20:05:54 10° WSW 20:09:13 56° WSW 20:09:13 56° WSW
Cosmos 2082 3.6 20:04:26 10° NNW 20:10:11 69° ENE 20:10:31 67° E
H-2A R/B 3.4 20:06:31 10° SSW 20:11:36 41° W 20:16:46 10° NNW
STARLINK-1039 4.4 20:10:55 10° WSW 20:14:02 50° W 20:14:02 50° W
STARLINK-1032 4.4 20:14:27 10° W 20:17:39 49° WNW 20:17:39 49° WNW
Resurs 1-3 4.1 20:22:00 59° W 20:22:00 59° W 20:26:13 10° NNW
Lacrosse 5 rocket 2.2 20:20:01 10° WNW 20:23:51 54° W 20:23:51 54° W
Cosmos 1655 Rocket 4.0 20:21:11 10° N 20:27:24 68° ENE 20:27:24 68° ENE
Cosmos 2142 Rocket 4.3 20:30:22 74° S 20:30:59 86° E 20:37:15 10° N
Cosmos 2219 4.3 20:26:45 10° NW 20:32:07 41° WSW 20:34:13 30° SSW
Lacrosse 5 2.3 20:30:41 10° WSW 20:34:53 59° W 20:34:53 59° W
GP-B 4.2 20:38:57 42° NW 20:38:57 42° NW 20:42:21 10° N
Cosmos 2279 Rocket 4.1 20:40:08 65° NNE 20:40:08 65° NNE 20:45:22 10° NNE
CZ-2C R/B 3.7 20:35:34 10° NNE 20:38:39 35° NNE 20:38:39 35° NNE
Cosmos 2263 Rocket 3.4 20:37:35 10° NNW 20:41:27 31° NNE 20:41:27 31° NNE
USA 234 3.2 20:42:41 68° NE 20:43:08 71° NNE 20:49:39 10° WNW
Cosmos 1634 Rocket 4.4 20:38:25 10° SSW 20:44:41 63° WNW 20:50:59 10° N
Gbstr 26 Del rocket 4.4 20:41:59 10° W 20:44:40 38° W 20:44:40 38° W
Resurs 01 Rocket 3.0 20:48:56 37° WNW 20:48:56 37° WNW 20:52:05 10° NNW
NOSS 3-2 (C) 4.3 20:52:55 10° NW 21:00:13 60° SW 21:01:19 56° SSW
CENTAUR R/B 3.3 21:01:11 10° NW 21:09:03 65° SW 21:09:51 62° SSW
ATLAS 3B R/B 3.1 21:17:18 10° NW 21:22:47 59° WNW 21:22:47 59° WNW
Cosmos 2297 Rocket 4.1 21:24:08 10° NW 21:28:19 21° W 21:28:41 21° WSW
Terra 4.4 21:36:23 16° N 21:36:23 16° N 21:37:18 10° NNW
Cosmos 2227 Rocket 4.4 21:43:43 10° WNW 21:47:08 17° W 21:47:08 17° W
Cosmos 2263 Rocket 4.5 22:21:28 10° NW 22:23:09 20° NW 22:23:09 20° NW
